Regional Weather Roundup
Issued by NWS

Home | Current Version | Previous Version | Text Only | Print | Product List | Glossary On
Versions: 1 2 3 4 5 6 7 8 9 10 11 12 13 14 15 16 17 18 19 20 21 22 23 24 25 26 27 28 29 30 31 32 33 34 35 36 37 38 39 40 41 42 43 44 45 46 47 48 49 50
750
ASUS43 KLSX 211859
RWRMO

WEATHER SUMMARY FOR MISSOURI
NATIONAL WEATHER SERVICE SPRINGFIELD MO
200 PM CDT FRI JUL 21 2017

NOTE: "FAIR" INDICATES FEW OR NO CLOUDS BELOW 12,000 FEET WITH NO
       SIGNIFICANT WEATHER AND/OR OBSTRUCTIONS TO VISIBILITY.
       CURRENT SKY AND/OR WEATHER CONDITIONS ARE NOT AVAILABLE FOR
       CHILLICOTHE AND FARMINGTON.

MOZ001>031-035>038-043-044-053-054-212000-
...NORTHERN AND WESTERN MISSOURI...

CITY           SKY/WX    TMP DP  RH WIND       PRES   REMARKS
KANSAS CTY INT MOSUNNY   96  75  50 S16       29.90F HX 108
KANSAS C DTWN  SUNNY     97  76  50 S13       29.88F HX 110
LEE`S SUMMIT   SUNNY     95  75  52 S20       29.92F HX 107
ST JOSEPH      SUNNY     94  79  61 S15       29.85F HX 111
CHILLICOTHE      N/A     93  79  63 S12       29.90F HX 110
KIRKSVILLE     SUNNY     94  77  57 S13       29.92F HX 108

$$
MOZ066>068-077>081-088>096-101>105-212000-
...SOUTHWEST MISSOURI...

CITY           SKY/WX    TMP DP  RH WIND       PRES   REMARKS
SPRINGFIELD    MOSUNNY   94  71  47 SW9G21    30.01F HX 101
JOPLIN         SUNNY     97  73  45 S15       29.98F HX 107
BRANSON        MOSUNNY   91  70  49 W3        30.05F HX  97

$$
MOZ032>034-039>042-045>050-055>058-069>072-212000-
...CENTRAL MISSOURI...

CITY           SKY/WX    TMP DP  RH WIND       PRES   REMARKS
COLUMBIA       SUNNY     97  74  47 S7        29.96F HX 108
JEFFERSON CITY SUNNY     96  70  42 SW8       29.94F HX 102
ROLLA          SUNNY     93  71  48 SW9       30.00F HX 100
SEDALIA        SUNNY     96  77  54 S12       29.96F HX 111
WARRENSBURG    SUNNY     95  72  46 S14       29.93F HX 103
OSAGE BEACH    MOSUNNY   96  69  41 SW6       29.98F HX 102

$$
MOZ051-052-059>065-212000-
...EAST CENTRAL MISSOURI...

CITY           SKY/WX    TMP DP  RH WIND       PRES   REMARKS
ST LOUIS INTL  MOSUNNY  101  69  35 W9G16     29.97F HX 107
SPIRIT OF STL  MOSUNNY   99  70  38 W10       29.94F HX 106
ST CHARLES     SUNNY     99  66  33 SW10      29.94F HX 103

$$
MOZ072>076-082>087-097>100-106>115-212000-
...SOUTH CENTRAL AND SOUTHEAST MISSOURI...

CITY           SKY/WX    TMP DP  RH WIND       PRES   REMARKS
CAPE GIRARDEAU SUNNY     95  73  48 W8        29.97F HX 104
FARMINGTON     MOSUNNY   97  74  47 S12       30.01F HX 108
POPLAR BLUFF   SUNNY     93  77  59 S8        29.99F HX 107
WEST PLAINS    MOSUNNY   93  71  48 VRB6G18   30.05F HX 100

$$




USA.gov is the U.S. government's official web portal to all federal, state and local government web resources and services.